Погода Узловая

Погода Узловая : погода сейчас, прогноз погоды и архив. Всё, что Вы хотите узнать о погоде Узловая!

Поиск расширенной информации на нашем сайте:

Другие новости

Новости СМИ2

Главная страница сайта

Новости сайта

02.10.2013

Напоминаем, что на нашем новом сайте вы можете получить высокодетализированные прогнозы погоды по пунктам России, СНГ и мира (включающие важные для авиации метеовеличины, такие как направление и скорость ветра, видимость, явления погоды, количество и форма облачности, нижняя и верхняя граница облачности), а также ознакомиться с разнообразными материалами по авиационной метеорологии и подборкой полезных ссылок на эту тему.

Сайт Метеоцентр.Азия посвящён разработке технологий оптимизации авиаметеорологического обслуживания, включая проектирование и перспективное создание нескольких автоматизированных авиаметеорологических систем:
- система выпуска высокодетальных прогностических карт явлений погоды для нижнего воздушного пространства по России и ближнему зарубежью;
- система верификации прогнозов TAF (выпускаемых синоптиками официальных АМСГ РФ и ближнего зарубежья) и AUTOTAF (выпускаемых сайтом Метеоцентр.Азия) - выявление ошибок, онлайн-сопоставление с фактической погодой METAR, автоматическое внесение коррективов в прогнозы при резком отклонении фактической погоды от прогноза, подсчёт оправдываемости прогнозов по элементам и в целом;
- система обработки, анализа и отображения авиаметеорологической информации для применения провайдерами метеорологической информации.

Рекомендуем: кровмаркет отзывы

Погода Узловая - сегодня

Время (UTC), дата Ветер
(°,м/с) 
Видим.   Явления Облачность Т
(°С)
Тd
(°С)
f(%) Тe
(°С)
Pmin
(гПа)
dP
(гПа)
Po
(мм)
O2
(г/м3)
Тmin Tmax R s Состояние
почвы
00 24.03.17 240 (ЮЗ) 11000 м    ясно 
-1.7 -3.2 89 -1  1025.4  747  303           
03 24.03.17 тихо ()   12000 м    3/0 средняя 
[Ac lent]
-1.7 -3.6 87 -2  1024.7  -0.7  747  303  -2.3         
06 24.03.17 150 (ЮВ) 25000 м    9/0 верхняя 
[Cc]
+5.8 -2.1 57 +7  1022.6  -1.2  746  294  -2.3         
09 24.03.17 220 (ЮЗ) 30000 м    8/8 300 м кучево-дожд. 
[Cb cap]
+7.4 -0.9 56 +6  1020  -2.4  744  292           
12 24.03.17 210 (ЮЗ) 30000 м    10/10 300 м кучево-дожд. 
[Cb cap]
+6.7 -0.1 62 +6  1016.7  -3.3  742  292           
15 24.03.17 330 (СЗ) 8000 м  слаб. ливневой дождь  10/10 300 м кучево-дожд. 
[Cb cap]
+3.1 +1.8 91 +4  1014.4  -2.7  740  294      0.7     
18 24.03.17 350 (С) 7000 м  в посл. час ливневой дождь  10/10 300 м кучево-дожд. 
[Cb cap]
+1.8 +0.9 94 +1  1013  -1.4  738  295    +7.9     
21 24.03.17 340 (С) 3{11}  9000 м  в посл. час ливневой дождь  10/10 300 м кучево-дожд. 
[Cb cap]
+0.9 -0.4 91 -1  1013.3  0.2  739  297           
00 25.03.17 310 (СЗ) 3{10}  15000 м  {ливн. осадки}  3/3 300 м 
[St]
-0.6 -2.1 90 -2  1013.8  0.3  739  299           
03 25.03.17 310 (СЗ) 25000 м    ясно 
-2.1 -4.6 83 -5  1014.7  0.7  739  301  -2.1       
06 25.03.17 310 (СЗ) 30000 м    ясно 
-0.4 -5.1 70 -3  1015.4  0.8  740  299  -2.3    0.4     
09 25.03.17 310 (СЗ) 4{10}  30000 м    8/8 300 м кучево-дожд. 
[Cb cap]
+1.5 -7.3 52 -1  1015  -0.3  740  297           
12 25.03.17 310 (СЗ) 4{11}  30000 м    8/8 600 м кучево-дожд. 
[Cb cap]
+3.7 -6.9 46 +2  1013.9  -0.8  739  295           
15 25.03.17 320 (СЗ) 2{11}  30000 м    5/5 600 м кучево-дожд. 
[Cb cap]
+3.4 -7.8 44 +3  1013.6  -0.3  739  295           
18 25.03.17 290 (З) 30000 м    ясно 
-1 -6.6 66 -2  1014.7  0.6  739  300    +4.4       
21 25.03.17 230 (ЮЗ) 24000 м    ясно 
-3.8 -6.2 83 -3  1015.5  0.5  740  303           
00 26.03.17 220 (ЮЗ) 12000 м    ясно 
-5.4 -6.8 90 -5  1016.3  0.6  740  305           
03 26.03.17 тихо ()   12000 м    3/0 верхняя 
[Ci sp]
-6.4 -7.9 89 -6  1017.1  0.7  741  306  -6.4         
06 26.03.17 210 (ЮЗ) 25000 м    3/0 верхняя 
[Ci sp]
+0.6 -4.1 71 +1  1017.5  1.1  742  299  -6.8         
09 26.03.17 270 (З) 30000 м    8/8 600 м 
[Sc]
+6.4 -8.1 35 +5  1016.9  742  293           
12 26.03.17 270 (З) 30000 м    5/5 600 м 
[Sc]
+7.2 -8.8 31 +6  1015.2  -1.6  740  291           
15 26.03.17 250 (З) 30000 м    8/5 600 м верхняя 
[Sc|Ci]
+4.7 -8.4 38 +4  1013.2  -2.1  739  293           
18 26.03.17 240 (ЮЗ) 35000 м    3/0 верхняя 
[Ci sp]
+0.3 -5.9 63 +1  1011.2  -2.5  737  297    +7.6       
21 26.03.17 230 (ЮЗ) 35000 м    10/0 средняя 
[Ac As]
+1.3 -7.5 52 1007.4  -3.5  734  295           
00 27.03.17 220 (ЮЗ) 6-12{15}  2400 м  снег  10/8 300 м средняя 
[Frnb|As op]
-1.2 -1.8 96 -5  1001.1  -6.4  730  295           
Время (UTC), дата Ветер
(°,м/с) 
Видим.   Явления Облачность Т
(°С)
Тd
(°С)
f(%) Тe
(°С)
Pmin
(гПа)
dP
(гПа)
Po
(мм)
O2
(г/м3)
Тmin Tmax R s Состояние
почвы

Для получения пояснительной информации подведите курсор к названию столбца.

ПОГОДА Узловая - архив

Всё, что Вы хотите узнать о погоде Узловая - удобно и подробно!

Выберите нужную дату (начиная с 1 января 2015* года) и нажмите кнопку "Найти".
Будут отображены архивные сводки погоды по пункту Узловая, начиная с указанной даты.


Отображать данные в формате CSV (для использования в таблицах Excel)


Внимание! Наш архив погоды предназначен исключительно для личного некоммерческого использования в познавательных целях. Если Вам необходимы официальные справки о состоянии погоды (для производственных, юридических, коммерческих и т.п. целей), обращайтесь в органы Росгидромета.

*Примечание: данная дата относится к архиву по метеостанциям СССР (Россия, СНГ, Балтия).
Архив по метеостанциям Зарубежной Европы и Азии (кроме Китая) хранится 10 дней, по другим регионам земного шара (Китай, Африка, Америка, Австралия, Океания) - 1 день.

Узловая - район местоположения метеостанции


Название, широта, долгота, высота метеостанции:
Узловая 54°ш. 38.1°д. 231 м над ур. моря [Российская Федерация]

Дополнительная информация

В oтличие oт бoльшинства пoгoдных сайтoв мы публикуем пoдрoбную метеoинфoрмацию в детальнoм прoфессиoнальнoм фoрмате.

Характеристики температуры и влажнoсти вoздуха измеряются на высoте 2 м в тени вдали oт зданий и деревьев.
Скoрoсть ветра измеряется на высoте 10 м (на урoвне рoста челoвека скoрoсть ветра ниже в 1.5-2 раза). Если метеoстанция нахoдится в гoрoде или в лесу, тo скoрoсть ветра занижена на 2-4 м/с пo сравнению с oткрытым местoм. Скoрoсть ветра над акватoриями крупных рек и oзёр, а также на вершинах хoлмoв на 2-5 м/с выше, чем в oбычных услoвиях.
Атмoсфернoе давление в разных тoчках местнoсти мoжет значительнo oтличаться oт давления на метеoстанции, в зависимoсти oт услoвий рельефа (при пoдъёме на 10 м давление пoнижается примернo на 1 мм рт.ст.).